HYSIS (43719 NORAD) Tracking and Keplerian Element Data

This shows tracking and keplerian element data for the satellite.

Feedback or suggestion? Click here.




ElementValue
Catalog43719
NameHYSIS
Epoch Orbit2938
Epoch Day167.10788971
Epoch Year2019
RAAN234.8057
Inclination97.9473
Eccentricity0.0010002
Argument of Perigee344.2679
Mean Anonmoly15.8221
Mean Motion14.78644508
Decay Rate9.4E-07
L11 43719U 18096A 19167.10788971 .00000094 00000-0 19880-4 0 9996
L22 43719 97.9473 234.8057 0010002 344.2679 15.8221 14.78644508 29380

Live tracking and technical data element details for HYSIS (NORAD 43719). HYSIS can be tracked NOW for your location showing map with azimuth and elevation plus other details from your city location.

Track the satellite on the map from your city or location and see movement details for azimuth, elevation, latitude, longitude, range, height, and movement on the map or in text.







IsCatalogInMostPopularTable: catalog: 43719, numindb: 87
Update: records affected: 1



GetName: 43719 HYSIS

Hit Count: updated at: Mon, 17 Jun 2019 05:37:53 GMT